ION-MK01 (46274 NORAD) Tracking and Keplerian Element Data

This shows tracking and keplerian element data for the satellite.

Feedback or suggestion? Click here.




ElementValue
Catalog46274
NameION-MK01
Epoch Orbit308
Epoch Day267.48420187
Epoch Year2020
RAAN340.2209
Inclination97.4667
Eccentricity0.0006688
Argument of Perigee149.5402
Mean Anonmoly210.6219
Mean Motion15.15234385
Decay Rate1.55E-06
L11 46274U 20061C 20267.48420187 .00000155 00000-0 11728-4 0 9997
L22 46274 97.4667 340.2209 0006688 149.5402 210.6219 15.15234385 3086

Live tracking and technical data element details for ION-MK01 (NORAD 46274). ION-MK01 can be tracked NOW for your location showing map with azimuth and elevation plus other details from your city location.

Track the satellite on the map from your city or location and see movement details for azimuth, elevation, latitude, longitude, range, height, and movement on the map or in text.







IsCatalogInMostPopularTable: catalog: 46274, numindb: 3
Update: records affected: 1



GetName: 46274 ION-MK01

Hit Count: updated at: Thu, 24 Sep 2020 18:50:01 GMT